Theta_e
351 357 365 364 363 364 363 362 361 361 361 361 361 361 361 361 359 360 359 359 359 362 361 362 362 361 362 361 362 363 362 363 364 362 362 362 360 359 358 362 357 353 361
352 356 364 366 364 364 365 362 362 362 361 361 361 360 360 359 359 360 359 359 361 360 361 363 362 362 363 362 362 361 362 363 363 362 362 362 360 358 359 363 364 357 359
350 356 360 366 365 364 364 363 362 362 362 362 361 361 360 360 360 360 359 360 363 361 361 363 363 363 363 363 362 362 362 362 363 362 364 350 354 359 361 361 361 360 360
350 353 357 364 365 363 363 362 363 364 362 362 361 361 361 360 360 360 361 360 363 361 361 362 362 362 363 362 362 361 361 361 361 362 354 351 353 360 360 360 361 360 360
349 353 361 364 363 362 363 364 363 364 362 361 359 360 359 359 362 361 361 362 363 362 362 362 361 362 363 363 362 362 361 359 358 357 353 354 352 359 360 359 359 359 359
348 354 362 363 361 362 365 363 363 361 361 362 362 361 360 358 361 362 362 363 363 363 363 362 362 363 363 363 362 361 357 354 358 357 355 354 354 358 357 357 358 358 359
348 356 360 365 363 363 364 363 362 362 362 362 362 362 362 361 362 363 362 363 363 363 363 364 363 362 363 363 362 360 358 357 357 353 354 350 355 361 359 359 358 359 359
346 349 358 362 364 362 363 363 360 362 362 361 362 362 362 362 363 364 364 363 363 362 362 363 363 362 362 362 362 359 356 359 357 355 357 356 360 359 359 358 359 359 359
344 348 355 359 359 361 361 361 362 361 361 363 360 362 362 362 363 363 363 364 363 362 362 362 361 361 361 362 361 357 354 357 356 357 353 354 361 360 359 358 358 356 354
343 346 353 359 354 355 356 359 360 360 360 361 362 362 361 363 363 364 365 364 362 363 362 361 360 361 361 361 361 359 357 357 354 355 354 357 361 361 361 360 359 358 358
343 344 349 353 355 353 354 360 359 358 361 360 361 361 361 362 361 361 362 363 361 361 360 359 358 358 361 358 359 361 358 355 353 353 353 360 360 360 359 360 360 358 358
341 342 344 353 352 351 352 358 363 357 355 360 364 362 362 363 365 360 362 361 361 358 358 357 356 357 360 353 354 359 356 353 353 352 355 361 360 360 359 359 356 359 359
342 344 342 353 353 353 357 353 356 354 355 355 359 364 361 360 355 358 360 364 359 358 355 356 355 354 356 354 355 353 355 352 353 350 357 361 360 358 358 359 358 357 359
339 341 342 348 356 358 359 352 357 353 356 355 359 364 360 355 360 360 363 361 366 357 355 358 355 356 353 359 354 359 352 352 350 353 357 359 356 355 356 356 358 358 358
341 336 342 348 356 356 358 353 355 358 353 354 357 361 358 355 364 358 357 358 357 351 356 354 354 359 357 355 352 355 351 351 352 351 353 356 357 354 355 354 356 357 358
344 342 342 345 353 355 355 358 355 353 354 352 354 361 361 361 362 362 355 357 360 360 358 354 355 356 352 357 357 354 352 354 351 353 350 356 357 355 353 355 355 356 357
340 344 343 345 349 355 356 357 356 353 353 358 357 359 361 368 364 358 355 359 356 362 358 357 356 361 357 353 354 352 355 355 355 354 349 348 353 353 352 350 353 355 357
341 345 346 344 348 352 354 358 356 355 358 364 358 362 364 364 364 357 351 356 355 356 356 355 352 352 353 355 354 355 353 354 354 353 351 348 349 347 349 352 354 355 356
344 346 346 348 348 351 359 357 357 360 361 361 364 364 366 364 366 367 356 349 354 356 355 357 351 354 353 354 354 354 357 354 352 350 353 352 349 351 351 357 359 359 357
343 346 347 348 355 354 357 359 355 356 358 362 363 362 362 365 366 370 365 355 354 350 356 356 355 351 351 355 348 350 355 353 354 352 353 351 354 349 349 352 351 352 360
343 345 345 348 353 359 351 350 350 350 354 356 357 364 363 366 367 365 359 366 362 361 352 355 360 357 351 354 352 350 353 350 351 351 352 352 352 351 350 349 351 350 353
339 343 345 348 355 355 353 354 354 357 354 355 357 362 365 366 367 363 364 366 361 366 353 357 362 357 350 354 347 346 344 345 347 350 352 351 348 348 351 353 351 352 354
341 344 345 351 355 360 361 358 358 359 361 356 356 357 360 365 366 367 365 363 361 357 352 357 362 357 357 359 359 350 345 337 341 350 351 351 349 349 350 352 353 354 355
341 345 346 351 355 357 364 363 368 355 353 353 356 356 356 362 363 366 369 364 366 359 352 365 365 360 359 356 352 351 351 355 341 338 351 347 352 349 352 351 353 354 358
343 343 346 353 359 362 365 368 359 361 358 356 358 366 369 366 365 363 367 365 363 360 363 360 364 364 366 361 350 348 355 351 351 345 337 346 349 352 354 351 353 352 354
344 344 346 351 361 364 362 363 365 366 362 358 359 356 358 360 361 368 364 369 366 362 364 358 355 364 364 361 359 352 348 346 344 345 341 343 342 346 350 354 354 351 354
Wind_Speed
13 13 10 13 14 14 14 13 12 11 11 11 9 9 9 9 8 7 6 9 11 11 10 12 12 13 14 15 17 17 17 16 16 18 18 16 14 12 10 13 17 17 16
18 14 10 13 15 14 15 13 12 11 10 10 8 8 7 8 8 7 7 10 11 12 12 14 13 13 15 15 15 16 16 15 16 18 18 17 15 10 8 14 19 15 15
19 16 13 12 14 14 15 13 11 10 9 8 8 8 7 7 7 7 7 10 12 12 14 14 14 14 14 15 15 14 14 13 14 15 20 13 13 13 14 16 16 14 14
18 16 15 10 12 13 13 12 10 9 8 7 6 7 7 8 8 9 9 10 14 14 14 14 14 14 15 15 15 14 12 10 10 12 8 14 13 12 12 13 13 14 14
18 17 16 12 12 12 12 12 9 9 7 7 8 6 4 6 11 11 11 12 13 14 15 14 15 15 14 14 15 12 10 6 5 6 13 8 10 12 12 11 12 11 9
17 20 16 13 12 11 10 11 9 8 7 9 9 8 8 11 14 14 13 14 14 14 14 14 15 15 14 14 13 12 8 3 4 11 10 7 12 11 9 8 12 13 12
17 20 15 12 11 9 11 10 9 8 7 8 9 11 12 14 15 15 13 13 13 14 13 14 14 13 14 13 12 9 4 4 9 7 7 12 12 10 10 11 11 12 11
17 18 16 13 10 9 11 10 9 8 9 9 9 11 11 14 14 14 14 12 14 13 13 13 13 12 12 12 11 6 3 7 12 8 8 11 9 9 10 10 10 11 11
17 17 15 14 10 10 9 9 8 7 7 9 9 9 10 12 13 13 12 13 13 13 13 12 11 10 10 11 11 6 3 8 6 7 11 8 7 11 10 11 11 11 10
15 15 15 15 12 12 11 8 7 6 5 8 9 8 9 11 11 13 13 12 12 12 11 11 10 10 14 12 10 8 8 7 9 5 11 9 9 10 11 11 9 10 9
8 14 14 17 7 6 10 10 8 6 5 7 8 6 9 5 11 13 10 12 11 10 10 9 8 9 15 17 15 13 10 6 6 8 8 11 10 10 11 9 11 9 9
10 12 13 17 11 10 9 8 4 7 8 7 3 4 7 5 4 5 13 10 10 9 9 7 7 9 13 6 9 12 5 4 7 6 9 12 10 11 10 10 8 9 9
17 12 10 13 11 10 6 7 6 4 6 6 4 6 4 4 5 7 5 3 7 10 8 9 8 5 5 11 7 2 8 4 9 4 12 13 11 11 9 9 8 8 8
16 13 14 15 13 4 3 4 3 2 0 3 4 6 2 2 4 8 4 4 4 3 7 4 3 4 5 1 6 5 5 5 8 4 10 15 13 10 9 9 8 8 8
11 19 17 11 6 3 4 4 3 3 3 4 6 10 6 1 1 4 6 2 3 8 3 4 2 3 4 10 9 4 4 8 17 7 6 14 12 11 8 8 8 8 9
8 11 13 11 9 9 5 6 4 3 4 3 2 5 5 3 3 4 4 4 4 4 7 3 4 2 6 2 1 7 12 2 12 13 10 7 11 9 8 7 8 8 9
9 5 10 13 15 7 4 6 5 4 6 2 4 4 4 3 5 4 4 4 5 5 7 3 4 4 4 7 4 7 3 7 3 13 10 10 9 12 10 8 6 9 10
11 7 13 11 9 12 7 6 9 7 1 4 4 4 7 6 7 9 4 2 3 7 6 6 7 4 2 3 2 3 5 2 7 8 9 8 7 8 9 10 10 10 10
11 9 11 7 11 7 13 10 7 4 2 3 4 3 5 7 7 8 8 5 5 5 6 3 5 5 3 3 4 4 3 4 8 8 5 14 10 11 5 14 12 12 12
13 14 15 11 8 13 9 7 7 6 6 7 5 4 8 4 5 6 7 9 7 7 8 5 5 9 3 3 5 4 4 3 7 9 9 6 8 15 5 13 11 10 13
20 20 18 11 11 4 7 7 7 7 7 7 5 7 2 6 5 6 7 8 9 8 3 6 6 8 6 3 1 2 2 8 9 7 8 5 10 10 17 9 6 7 9
24 20 14 13 9 10 9 7 7 6 7 6 6 4 6 6 5 6 6 6 6 5 5 9 9 5 7 3 6 4 2 4 9 6 4 8 11 8 14 13 11 7 8
23 19 20 17 14 12 12 8 7 6 4 4 6 6 8 9 8 5 7 6 7 3 6 9 9 10 6 3 7 3 2 3 3 6 7 9 6 5 5 5 9 14 10
21 19 19 16 15 13 13 10 10 8 9 10 8 8 5 8 8 8 8 9 8 6 4 7 7 7 6 5 6 8 7 1 2 2 2 4 10 8 8 7 6 7 10
21 20 19 17 15 14 13 12 9 10 8 8 5 4 6 6 9 10 10 10 9 8 8 6 5 9 6 6 9 7 4 4 2 4 5 3 3 6 7 5 10 7 8
21 21 20 18 15 14 14 15 14 11 12 8 7 6 7 9 9 11 10 8 8 7 6 5 4 7 7 6 4 3 7 7 6 5 7 6 12 11 2 2 8 7 6
Wind_Direction
144 128 126 114 120 122 122 122 125 130 127 127 127 122 121 118 116 96 91 95 108 111 113 124 116 111 104 101 101 100 105 103 103 104 103 100 102 107 112 118 116 97 90
131 133 132 116 117 121 121 121 119 122 121 124 129 130 132 131 123 119 100 101 117 110 113 117 118 109 107 106 103 106 106 112 118 116 112 108 102 101 104 87 83 99 103
133 131 135 123 119 123 122 125 124 122 124 127 138 134 133 137 139 126 118 117 119 114 115 119 119 116 107 105 108 109 115 128 132 142 149 119 103 93 96 94 104 109 107
134 144 129 130 124 126 124 125 123 122 116 116 111 129 143 147 139 128 121 121 109 113 116 120 121 117 114 113 113 119 123 145 149 171 194 119 107 101 99 105 108 114 112
144 139 117 134 128 131 129 122 124 114 109 107 110 115 111 147 141 127 125 116 112 110 119 123 117 116 113 110 117 120 126 143 194 229 96 97 110 112 115 118 121 125 123
153 118 128 136 136 138 129 125 112 111 102 99 106 99 87 112 130 125 127 118 115 116 118 118 115 121 115 114 118 126 142 181 255 111 126 100 99 109 126 120 107 104 110
148 118 142 138 139 141 127 118 112 102 90 98 115 107 103 113 120 121 122 118 117 116 119 121 119 115 116 117 118 126 155 201 101 105 79 96 103 118 114 103 105 111 114
130 138 133 141 140 134 120 124 110 98 100 101 105 113 114 119 123 122 124 123 114 115 115 115 115 119 116 118 116 125 258 294 130 90 95 85 99 118 118 114 110 116 114
136 148 146 146 143 138 126 115 115 109 94 99 105 113 124 124 124 123 120 124 118 119 116 115 114 119 127 114 120 131 296 292 100 129 115 107 101 104 114 114 113 109 113
152 140 155 138 168 165 152 131 113 102 91 100 112 134 135 137 134 133 137 124 127 121 120 119 114 117 125 123 135 161 212 250 99 123 101 96 109 108 108 105 110 115 116
164 152 170 153 170 168 152 131 146 139 150 151 140 164 179 178 173 153 120 130 130 129 131 129 134 147 154 155 164 185 201 231 95 92 96 112 120 118 111 114 113 115 119
138 169 208 136 179 189 143 155 144 156 187 161 122 240 191 128 78 158 123 138 136 144 146 151 170 196 196 154 183 171 222 212 91 138 103 108 120 116 118 115 112 121 125
179 180 210 124 183 207 116 180 168 199 148 143 143 227 327 55 177 106 119 166 153 185 179 183 184 288 351 152 215 26 197 117 96 80 108 116 118 124 127 122 127 128 129
175 173 217 150 201 164 126 211 172 155 261 150 154 92 326 162 234 115 159 158 202 260 199 162 125 209 300 250 116 155 128 127 107 119 129 135 133 128 138 140 143 138 132
184 182 198 159 166 165 182 185 131 294 225 180 176 150 207 71 161 93 89 134 99 278 211 160 236 155 198 94 281 92 130 146 125 129 129 150 150 137 131 148 155 156 152
216 194 154 164 167 207 181 253 244 233 250 229 236 131 190 54 12 115 120 152 188 262 297 147 198 192 75 231 33 166 181 170 105 148 147 148 155 143 141 133 161 168 169
195 204 181 196 175 168 241 215 234 253 211 113 256 175 211 179 182 169 139 204 163 225 238 242 196 255 240 170 174 157 181 146 188 132 150 160 162 169 173 169 175 178 169
164 204 238 203 168 169 190 222 248 227 119 323 186 159 182 200 173 129 169 165 331 238 237 124 232 197 244 224 134 261 131 193 183 163 154 142 177 168 187 195 181 181 176
178 204 215 222 190 213 190 211 225 227 224 235 274 209 160 199 197 150 164 168 207 278 279 204 196 283 238 182 190 193 202 138 198 50 156 149 177 161 175 177 179 178 182
183 195 215 195 209 201 206 205 219 229 230 191 209 254 184 206 201 155 165 168 194 234 237 289 164 228 225 190 223 176 216 185 163 166 178 191 187 162 161 171 172 178 186
195 197 198 193 226 194 207 205 215 223 221 243 238 196 225 194 204 193 197 175 190 200 222 291 203 224 225 167 90 34 232 222 194 139 184 152 186 174 169 165 173 151 178
191 191 184 206 207 198 203 211 222 217 232 226 247 229 216 232 214 196 206 171 202 170 144 216 225 192 234 305 202 212 204 263 215 157 238 193 196 190 171 168 148 170 174
195 193 190 195 206 206 228 201 204 248 266 260 236 231 222 235 210 206 205 217 187 150 166 247 214 205 213 245 246 225 229 208 97 194 177 231 171 165 127 149 180 170 181
194 199 202 200 205 209 210 243 211 220 206 215 218 218 217 214 230 203 215 220 211 172 216 233 206 203 211 200 218 239 272 70 137 27 152 219 176 210 164 173 192 175 185
201 201 206 206 206 214 201 226 223 223 229 238 228 209 205 227 215 227 212 218 206 209 187 220 221 212 193 196 224 211 207 301 201 241 191 203 40 208 174 196 184 165 217
207 208 207 207 201 205 221 205 231 236 229 253 217 229 218 215 210 215 223 216 227 213 197 170 207 235 207 261 271 234 196 209 209 229 254 240 188 176 216 292 175 178 172